Regional Weather Roundup
Issued by NWS Sioux Falls, SD

Home | Current Version | Previous Version | Text Only | Print | Product List | Glossary Off
Versions: 1 2 3 4 5 6 7 8 9 10 11 12 13 14 15 16 17 18 19 20 21 22 23 24 25 26 27 28 29 30 31 32 33 34 35 36 37 38 39 40 41 42 43 44 45 46 47 48 49 50

000
ASUS43 KFSD 221010
RWRFSD

WEATHER ROUNDUP FOR SE SOUTH DAKOTA/SW MINNESOTA/NW IOWA
NATIONAL WEATHER SERVICE SIOUX FALLS SD
500 AM CDT SAT JUL 22 2017

NOTE: "FAIR" INDICATES FEW OR NO CLOUDS BELOW 12,000 FEET WITH NO
SIGNIFICANT WEATHER AND OR OBSTRUCTIONS TO VISIBILITY.


SDZ038>040-050-052>070-221100-
SOUTHEAST SOUTH DAKOTA

CITY           SKY/WX    TMP DP  RH WIND       PRES   REMARKS
BROOKINGS      CLEAR     67  65  93 SW7       29.83R
CHAMBERLAIN    CLEAR     66  65  97 SW5       29.87R
HURON          CLEAR     66  65  96 S7        29.85R
MADISON        FAIR      64  64 100 CALM      29.84R
MITCHELL       CLEAR     68  67  96 W5        29.84R
SIOUX FALLS    CLOUDY    72  68  87 SE5       29.79F
WINNER         FAIR      68  64  87 SW6       29.91R
YANKTON        CLEAR     71  69  93 NE5       29.83R
$$

MNZ071-072-080-081-089-090-097-098-221100-
SOUTHWEST MINNESOTA

CITY           SKY/WX    TMP DP  RH WIND       PRES   REMARKS
FAIRMONT       CLOUDY    70  69  97 NE3       29.81F
JACKSON        CLOUDY    70  70 100 CALM      29.82R FOG
LUVERNE        CLOUDY    68  64  88 S7        29.78F
MARSHALL       CLOUDY    70  67  90 CALM      29.75F
MONTEVIDEO     CLOUDY    68  66  94 CALM      29.78R
PIPESTONE      CLOUDY    70  66  88 SE5       29.79F
REDWOOD FALLS  CLOUDY    70  67  90 S12G24    29.72F
WINDOM         CLOUDY    70  68  94 SE13      29.75F
WORTHINGTON    CLOUDY    69  69 100 SE9       29.79F FOG
$$

IAZ001>003-012>014-020>022-031-032-NEZ013-014-SDZ071-221100-
NORTHWEST IOWA

CITY           SKY/WX    TMP DP  RH WIND       PRES   REMARKS
CHEROKEE       CLOUDY    73  72  98 N3        29.83R
DENISON        CLOUDY    73  73 100 NE9G16    29.82S FOG
ESTHERVILLE    CLOUDY    70  70 100 CALM      29.80F
ORANGE CITY    CLOUDY    72  72 100 NE6       29.82F
SHELDON        CLOUDY    72  70  94 E5        29.80F
SIOUX CITY     LGT RAIN  76  73  91 E10       29.80R
SPENCER        CLOUDY    73  71  93 NE8       29.83R
STORM LAKE     CLOUDY    72  70  94 E10       29.81F FOG
$$

ABBREVIATIONS USED IN REMARKS
   TC - TEMPERATURE IN CELSIUS
  WCI - WIND CHILL INDEX
   HX - HEAT INDEX
  VSB - VISIBILITY





USA.gov is the U.S. government's official web portal to all federal, state and local government web resources and services.